Wind_Speed
24 22 20 19 18 14 9 4 5 5 9 11 11 10 12 14 14 13 13 12 10 8 7 7 7 7 7 7 8 8 9 10 10 10 10 11 12 13 14 14 15 15 15 15 15 15 15 15 15
27 25 23 23 22 18 13 7 7 7 9 13 13 12 12 13 12 11 12 11 9 8 7 7 6 6 5 5 6 6 7 7 7 8 8 9 10 11 12 13 14 14 14 14 14 14 14 15 14
29 28 27 26 26 22 17 10 8 4 8 14 16 14 13 11 9 9 10 9 8 7 6 6 5 5 4 4 4 5 5 5 5 5 5 6 7 9 10 11 12 12 12 12 12 12 13 13 14
29 31 30 30 28 25 20 13 9 5 6 14 16 15 14 9 6 7 8 7 6 5 4 4 3 3 3 3 4 4 4 3 3 2 2 3 4 6 7 9 10 10 10 10 10 11 11 12 13
29 32 33 33 31 27 22 16 11 6 8 15 16 16 15 8 5 5 6 5 5 4 3 2 1 2 3 4 4 4 4 3 2 1 1 1 2 4 5 7 8 9 9 9 10 10 11 13 14
27 31 34 33 33 31 25 18 13 9 11 16 17 17 15 8 4 5 4 4 3 2 2 1 2 3 4 5 5 5 4 3 3 2 3 3 3 4 6 7 8 9 9 10 11 12 13 14 16
23 28 30 32 35 34 28 20 14 9 11 16 19 18 17 11 5 4 4 3 3 3 3 4 5 5 6 7 6 6 5 5 5 5 5 5 5 6 7 8 10 11 11 12 12 14 15 17 18
21 24 26 31 36 35 29 22 15 12 13 17 20 18 17 13 7 6 5 5 5 5 5 5 6 6 7 7 7 6 6 6 6 6 6 6 6 7 8 9 10 12 13 13 14 15 17 18 20
20 20 19 26 34 34 31 25 19 16 16 18 20 20 19 14 10 9 7 6 6 5 4 5 5 6 6 6 6 6 6 6 6 6 5 6 6 7 8 9 11 13 14 15 15 16 17 19 20
17 13 13 22 30 35 34 30 24 21 18 19 20 21 19 13 12 11 8 7 6 5 4 4 4 4 5 5 5 5 5 6 5 5 5 5 6 6 7 9 11 13 14 15 16 17 18 20 21
16 12 16 24 30 35 36 33 29 25 22 21 20 20 18 15 13 11 9 7 6 5 5 3 2 2 3 4 4 5 5 6 5 5 5 6 7 6 7 10 12 13 15 16 17 18 19 20 21
17 15 18 24 30 35 36 35 32 27 24 23 21 20 20 17 15 13 11 8 7 6 5 4 2 2 2 3 3 4 5 5 5 5 6 7 7 8 8 10 12 13 15 17 18 18 19 20 20
20 18 19 24 28 32 34 34 33 29 26 26 24 21 19 17 17 14 12 10 9 7 6 5 4 3 1 1 2 3 4 5 5 5 6 7 7 8 9 12 12 14 16 17 18 16 16 18 19
23 22 22 25 27 28 28 29 31 29 29 28 27 23 19 17 17 16 13 11 9 9 7 6 5 5 3 2 2 3 4 5 6 6 6 7 8 9 11 12 14 15 16 18 18 17 15 17 18
27 25 24 24 25 24 25 26 27 29 31 31 28 25 22 19 18 17 16 13 11 11 9 8 7 7 6 5 5 5 6 7 7 8 8 8 10 10 11 13 14 15 16 17 17 16 15 16 17
30 28 25 24 23 23 23 23 26 30 32 30 28 25 22 19 18 19 19 17 14 13 11 10 10 9 8 7 7 6 7 8 9 11 11 11 11 12 12 14 14 15 16 16 16 15 14 14 16
31 28 25 24 22 21 20 19 26 31 32 30 28 25 22 21 20 19 19 19 17 16 13 13 12 11 10 10 10 10 10 11 12 13 14 14 14 14 14 15 16 16 17 16 15 13 14 13 14
31 28 26 23 21 20 18 17 23 29 31 29 28 27 25 23 22 21 20 19 18 17 17 15 14 13 13 13 14 14 15 16 16 16 17 17 17 17 18 18 18 18 17 16 15 14 14 14 14
32 29 26 23 22 21 19 19 22 27 29 27 27 27 25 25 24 24 23 21 19 18 17 15 15 15 15 17 19 20 21 22 22 21 22 22 21 21 22 21 21 20 19 17 16 15 15 16 15
32 30 26 23 23 22 21 21 23 26 26 25 25 26 27 26 25 25 24 23 21 20 17 17 15 17 19 21 24 25 26 27 26 26 26 26 25 24 24 25 23 23 22 19 18 17 17 17 17
33 31 27 24 24 23 23 25 27 28 27 27 26 27 28 28 28 26 24 25 23 21 22 22 20 21 23 25 26 29 30 31 31 31 30 30 28 27 27 28 27 26 23 21 21 20 20 21 20
31 31 29 27 26 24 25 27 29 29 28 29 29 28 28 28 29 29 29 27 26 26 25 24 23 25 26 28 30 32 33 34 34 34 33 31 30 29 30 30 30 27 25 24 24 24 24 24 25
29 30 30 29 28 27 27 29 30 31 31 31 31 30 30 30 30 30 30 30 29 29 28 28 28 30 30 32 34 35 36 36 36 36 34 32 31 31 31 32 30 28 27 27 27 28 28 28 28
29 31 32 31 30 29 29 30 31 32 33 34 33 32 32 32 32 33 33 33 33 32 32 32 34 35 36 37 37 36 37 37 36 36 36 35 34 33 32 32 31 31 30 30 31 31 32 32 33
28 31 33 33 32 31 29 31 32 32 33 35 36 36 36 35 35 35 35 35 35 35 36 37 38 39 40 40 40 39 39 38 38 37 36 35 33 31 32 33 33 33 33 33 34 34 35 36 37
25 29 32 33 34 33 30 32 33 31 31 33 36 38 39 38 37 37 37 37 38 39 40 41 42 42 43 43 42 41 39 38 37 37 34 33 33 34 34 34 35 34 34 36 37 38 39 40 41
21 24 28 31 34 34 34 36 35 33 32 34 36 38 39 39 38 38 38 39 41 43 44 44 45 46 45 45 43 41 39 38 36 35 35 35 35 36 36 38 37 37 38 40 41 42 43 44 45
19 21 24 28 31 33 34 35 37 35 34 35 36 37 39 39 39 39 40 41 42 43 45 46 47 47 46 45 44 41 40 38 38 37 37 37 37 38 39 39 40 41 42 44 45 46 47 48 49
18 22 25 27 29 30 32 34 37 36 33 32 33 35 38 40 40 40 41 41 42 43 45 46 47 47 46 45 43 42 41 40 39 39 40 40 40 41 42 43 44 46 47 48 48 49 50 51 52
20 23 25 27 29 30 33 37 38 36 34 31 31 32 36 39 40 41 42 43 43 44 45 45 45 45 44 43 43 42 42 43 43 43 43 43 44 45 46 47 49 50 51 52 52 53 54 55 56
Wind_Direction
214 209 201 193 181 174 180 160 101 37 341 318 317 317 313 305 301 294 283 274 270 263 253 246 243 238 234 235 238 241 243 245 249 254 260 266 271 274 277 278 278 278 278 278 277 277 277 277 276
216 212 205 197 187 181 188 166 94 36 330 308 305 304 300 299 295 286 274 267 261 255 247 243 240 232 227 228 229 232 236 243 250 255 261 267 273 277 279 279 280 279 280 280 280 279 279 279 278
217 214 208 199 190 189 193 175 129 70 316 306 306 307 299 291 286 272 262 254 248 246 245 243 238 228 219 218 216 216 221 231 240 249 262 271 276 280 282 283 283 283 284 284 283 282 281 279 277
219 215 210 201 193 193 193 176 141 117 288 293 298 305 300 290 279 260 250 242 240 240 243 241 228 209 194 191 187 186 189 196 205 226 265 284 288 288 289 289 289 289 289 287 284 281 279 278 277
222 217 212 203 194 193 191 179 159 162 262 278 287 298 296 293 278 255 243 233 233 233 243 236 190 159 153 154 153 154 158 161 156 139 88 18 339 317 309 303 300 298 295 290 284 280 278 277 276
229 223 215 204 195 195 193 187 181 193 245 266 278 289 287 280 259 243 225 208 213 206 197 143 102 117 130 130 131 134 133 126 113 91 66 42 13 348 333 323 317 312 306 297 289 284 280 277 275
236 231 220 205 196 196 196 196 188 202 251 268 273 277 275 270 233 212 193 175 178 158 133 113 110 113 117 116 112 108 100 91 82 71 57 41 22 2 348 339 331 325 317 308 298 289 283 279 277
241 237 223 207 198 195 198 201 193 207 244 260 266 272 271 263 220 194 183 173 172 148 127 116 117 114 112 107 100 93 84 76 70 61 50 37 21 6 354 343 333 327 320 312 304 296 289 284 282
245 243 228 208 200 194 199 200 197 211 232 250 261 269 266 254 216 190 182 176 177 160 139 131 127 119 111 101 93 85 76 69 61 52 42 29 17 6 356 343 334 327 321 314 307 301 294 290 288
247 243 215 201 198 194 200 202 204 215 225 241 255 263 260 243 212 194 189 185 191 184 165 152 142 125 109 97 86 76 70 63 55 46 33 20 8 1 356 345 338 333 326 316 306 301 296 292 291
238 223 201 193 192 193 199 202 206 216 224 235 247 255 254 242 221 202 196 194 202 199 192 182 169 147 112 93 78 70 66 57 46 40 28 17 9 3 358 357 349 343 337 326 314 300 292 290 292
226 213 202 192 191 193 197 202 205 214 225 232 238 241 244 233 227 211 205 203 213 218 214 204 205 174 122 91 73 66 58 53 48 40 30 24 18 11 5 358 351 344 342 334 322 308 291 287 289
220 211 203 196 195 195 198 201 204 209 219 228 231 233 238 229 229 221 216 213 221 227 226 235 242 238 211 70 47 43 39 34 34 33 30 27 20 13 2 358 351 345 341 339 333 320 301 290 290
217 212 206 202 200 200 201 202 204 206 216 224 229 230 232 233 230 227 221 219 224 223 226 239 251 263 275 300 333 358 9 7 8 11 10 9 6 4 1 357 352 348 346 344 340 330 314 300 295
218 215 212 210 208 206 208 206 204 204 214 223 228 231 231 230 231 232 222 216 223 222 226 238 247 258 272 286 302 325 340 346 344 343 344 349 351 350 351 352 350 348 346 345 341 334 322 302 292
220 220 217 216 215 214 215 210 207 206 212 222 229 232 235 239 242 241 227 220 221 225 233 234 245 254 262 275 289 306 318 322 323 323 325 330 335 337 338 340 341 342 340 337 337 333 326 312 296
222 223 221 219 219 220 221 213 208 208 211 216 226 231 237 241 249 248 236 230 227 226 231 235 243 255 264 273 282 291 300 303 306 309 311 313 318 323 327 330 333 334 334 333 331 332 330 318 307
224 225 223 221 217 217 214 207 203 204 208 211 219 227 235 243 252 252 248 244 238 237 237 239 244 257 273 283 287 290 294 298 299 300 300 302 305 309 314 317 320 322 324 327 326 327 328 323 316
222 223 223 220 213 209 201 196 194 197 201 207 217 227 235 241 249 251 251 249 249 246 245 244 253 265 276 285 289 291 292 295 296 296 295 296 297 301 305 307 309 312 313 314 314 316 318 317 313
217 218 217 214 212 208 195 190 188 191 196 205 216 228 236 242 251 255 258 261 262 262 256 255 262 268 276 282 287 290 290 293 295 294 292 291 291 294 298 301 301 303 305 304 305 305 308 309 309
215 214 209 205 209 208 195 189 187 189 197 205 214 225 236 244 252 259 262 263 269 271 277 271 267 269 276 279 283 287 289 289 291 290 288 288 288 290 291 294 294 298 299 301 300 299 299 300 300
214 211 206 204 208 206 200 191 192 194 201 212 219 226 235 242 250 257 262 265 271 273 278 279 277 280 282 283 285 285 287 288 288 288 287 286 286 287 288 289 291 294 298 299 296 295 294 296 296
209 208 207 206 209 208 205 200 195 202 208 217 223 230 237 244 251 257 265 269 273 278 281 282 282 283 285 287 287 285 286 286 285 285 286 286 285 285 287 290 290 293 298 298 295 293 293 294 294
205 206 208 208 210 210 210 208 201 208 215 222 228 234 240 246 252 257 263 269 273 278 280 282 283 284 287 289 287 286 287 286 285 284 284 283 283 284 286 287 289 293 295 295 294 293 292 292 293
207 207 209 210 213 212 214 217 213 213 218 225 230 234 240 246 251 257 263 267 271 275 277 279 281 283 286 287 288 288 287 285 284 283 281 282 282 282 284 285 287 291 293 293 293 293 292 292 292
207 210 212 214 217 216 217 223 223 221 224 228 232 235 239 244 250 255 259 263 267 270 274 276 280 281 285 287 287 286 284 283 283 282 280 281 282 283 284 285 288 290 292 292 292 293 293 293 292
208 212 214 217 221 223 222 228 231 229 230 233 236 238 240 244 248 251 256 260 263 267 271 274 277 280 283 285 285 284 282 281 281 280 281 281 282 283 286 288 288 290 292 292 293 293 292 292 292
209 210 214 218 221 224 223 229 233 233 235 236 237 238 240 243 247 250 254 258 262 265 269 272 275 278 280 281 281 280 279 279 278 279 279 281 282 284 287 288 288 290 291 292 292 291 292 292 293
205 210 216 219 221 224 223 227 232 233 234 234 235 238 240 242 246 250 254 258 261 264 267 270 272 275 277 277 277 277 277 278 278 279 281 282 283 285 286 287 289 290 290 290 290 290 290 290 291
207 210 215 218 221 224 226 228 231 234 236 241 243 244 242 241 244 249 253 256 259 262 265 268 270 272 273 274 275 276 276 277 279 280 281 282 284 286 287 288 289 289 290 289 289 290 290 290 291
Height
5889 5892 5896 5900 5902 5902 5901 5900 5898 5899 5900 5900 5902 5903 5903 5903 5905 5907 5904 5902 5902 5902 5902 5902 5902 5902 5902 5903 5904 5904 5905 5905 5906 5906 5907 5907 5907 5907 5907 5906 5906 5905 5905 5904 5904 5903 5903 5902 5901
5886 5889 5893 5897 5899 5899 5900 5898 5897 5898 5899 5899 5900 5902 5902 5902 5902 5902 5900 5900 5901 5901 5901 5901 5901 5901 5901 5902 5902 5903 5904 5904 5905 5905 5906 5906 5906 5905 5905 5904 5904 5903 5903 5902 5902 5901 5901 5900 5899
5881 5884 5889 5892 5895 5897 5898 5897 5895 5897 5898 5897 5898 5900 5900 5900 5900 5899 5899 5899 5900 5900 5900 5900 5900 5900 5900 5901 5901 5902 5903 5903 5904 5904 5904 5905 5904 5904 5904 5903 5902 5902 5901 5901 5900 5900 5899 5898 5897
5876 5880 5884 5888 5892 5894 5896 5896 5895 5896 5897 5897 5898 5898 5898 5899 5899 5897 5897 5898 5899 5899 5900 5900 5900 5900 5900 5900 5901 5901 5902 5902 5903 5903 5904 5904 5903 5903 5903 5902 5901 5901 5900 5900 5899 5898 5897 5896 5895
5870 5873 5877 5882 5888 5891 5894 5894 5894 5894 5895 5895 5897 5897 5896 5897 5897 5896 5896 5897 5898 5899 5899 5900 5900 5900 5900 5900 5901 5901 5902 5902 5903 5903 5903 5903 5903 5902 5902 5901 5901 5900 5900 5899 5898 5897 5896 5895 5893
5866 5868 5872 5877 5884 5887 5890 5891 5890 5891 5891 5893 5895 5896 5895 5897 5897 5895 5895 5897 5897 5898 5899 5899 5900 5900 5900 5901 5901 5901 5902 5902 5903 5903 5903 5903 5902 5902 5901 5901 5900 5900 5899 5899 5898 5896 5895 5893 5891
5862 5863 5867 5874 5879 5883 5887 5888 5888 5888 5889 5890 5893 5894 5893 5896 5897 5894 5894 5896 5897 5898 5899 5899 5900 5900 5901 5901 5902 5902 5902 5903 5903 5903 5903 5903 5902 5902 5901 5900 5900 5899 5898 5897 5896 5895 5893 5891 5889
5857 5859 5862 5868 5873 5879 5884 5885 5885 5885 5887 5888 5890 5892 5892 5894 5896 5895 5894 5896 5898 5899 5899 5900 5900 5901 5901 5901 5902 5902 5903 5903 5903 5903 5903 5903 5902 5901 5901 5900 5899 5898 5896 5895 5894 5892 5891 5888 5886
5852 5855 5858 5864 5869 5876 5880 5881 5882 5882 5884 5885 5888 5891 5891 5891 5894 5895 5895 5896 5898 5899 5899 5900 5901 5901 5901 5901 5902 5902 5902 5903 5902 5902 5902 5902 5901 5900 5900 5898 5897 5895 5894 5892 5891 5889 5888 5885 5884
5849 5852 5855 5860 5865 5871 5874 5877 5878 5878 5880 5883 5886 5888 5889 5890 5892 5894 5894 5896 5898 5899 5899 5900 5901 5901 5901 5901 5901 5902 5902 5902 5902 5902 5901 5901 5900 5899 5898 5896 5895 5893 5891 5889 5887 5886 5884 5882 5881
5847 5849 5851 5854 5859 5864 5868 5871 5873 5874 5877 5880 5883 5886 5887 5888 5890 5892 5893 5894 5897 5898 5899 5899 5900 5900 5900 5901 5901 5901 5901 5901 5901 5901 5900 5899 5898 5897 5896 5894 5893 5891 5888 5886 5884 5882 5880 5878 5878
5844 5846 5847 5851 5854 5858 5862 5866 5869 5871 5873 5877 5880 5883 5885 5886 5888 5890 5891 5892 5895 5897 5898 5898 5899 5899 5899 5899 5900 5900 5900 5900 5900 5899 5899 5898 5897 5895 5894 5892 5890 5888 5885 5882 5880 5878 5876 5874 5874
5840 5842 5845 5847 5850 5854 5857 5860 5864 5867 5870 5872 5875 5878 5881 5884 5886 5888 5889 5890 5892 5894 5896 5897 5897 5898 5898 5898 5898 5898 5898 5898 5898 5898 5897 5896 5895 5894 5892 5890 5888 5885 5882 5879 5876 5873 5871 5870 5870
5837 5839 5841 5844 5847 5850 5853 5856 5860 5864 5866 5868 5871 5874 5878 5880 5883 5885 5887 5889 5890 5892 5893 5894 5895 5895 5895 5896 5896 5896 5896 5895 5895 5895 5894 5894 5893 5891 5890 5887 5884 5882 5879 5875 5872 5869 5867 5866 5865
5831 5835 5838 5841 5844 5847 5850 5853 5857 5861 5862 5864 5867 5871 5874 5876 5878 5881 5884 5886 5888 5890 5891 5892 5893 5893 5893 5894 5894 5893 5892 5892 5892 5892 5891 5890 5889 5888 5886 5884 5881 5879 5876 5873 5870 5867 5864 5862 5861
5827 5831 5835 5839 5842 5844 5847 5850 5854 5857 5859 5861 5864 5868 5871 5873 5875 5877 5879 5881 5884 5886 5888 5889 5890 5891 5891 5891 5891 5890 5890 5889 5889 5888 5887 5886 5885 5884 5882 5880 5878 5875 5873 5870 5867 5865 5862 5859 5857
5823 5828 5832 5836 5838 5840 5843 5846 5849 5852 5855 5858 5860 5864 5867 5869 5871 5873 5874 5877 5879 5881 5883 5885 5886 5886 5887 5887 5887 5887 5886 5886 5885 5884 5883 5882 5881 5879 5878 5876 5874 5872 5869 5867 5864 5862 5859 5857 5855
5819 5824 5828 5831 5834 5836 5838 5841 5844 5847 5851 5854 5857 5859 5862 5864 5867 5869 5871 5874 5874 5875 5877 5879 5880 5881 5881 5881 5881 5881 5881 5881 5880 5879 5878 5877 5876 5874 5873 5871 5870 5868 5866 5863 5861 5859 5856 5854 5852
5814 5819 5823 5827 5828 5831 5834 5837 5840 5843 5847 5851 5853 5855 5857 5860 5864 5866 5869 5870 5871 5871 5872 5875 5876 5876 5875 5875 5875 5875 5874 5874 5873 5873 5872 5870 5870 5868 5867 5866 5864 5863 5861 5859 5857 5855 5853 5851 5848
5808 5814 5820 5823 5825 5828 5830 5833 5837 5840 5844 5847 5849 5851 5853 5856 5859 5862 5865 5866 5868 5870 5870 5870 5870 5871 5870 5870 5869 5868 5867 5867 5866 5866 5865 5864 5863 5862 5861 5860 5859 5857 5856 5854 5852 5851 5849 5847 5845
5803 5810 5815 5818 5820 5824 5828 5831 5834 5838 5840 5842 5844 5847 5850 5853 5856 5858 5860 5862 5864 5865 5866 5865 5865 5866 5865 5864 5863 5863 5861 5860 5859 5858 5857 5856 5856 5855 5854 5853 5852 5850 5849 5848 5847 5845 5843 5841 5840
5800 5805 5810 5813 5817 5820 5825 5828 5832 5835 5837 5838 5841 5843 5845 5848 5851 5854 5856 5857 5859 5860 5859 5859 5859 5860 5859 5859 5859 5857 5855 5854 5853 5851 5850 5849 5848 5847 5846 5845 5844 5843 5842 5841 5840 5839 5837 5835 5833
5795 5800 5804 5809 5812 5817 5820 5824 5829 5832 5834 5835 5837 5839 5841 5843 5846 5849 5851 5852 5853 5853 5853 5853 5853 5853 5852 5852 5851 5850 5849 5847 5845 5844 5843 5841 5841 5840 5838 5837 5836 5835 5834 5834 5833 5831 5830 5828 5826
5790 5795 5800 5804 5808 5813 5816 5820 5825 5828 5830 5832 5833 5835 5837 5839 5841 5843 5844 5846 5846 5847 5847 5847 5846 5845 5845 5845 5843 5841 5841 5839 5837 5836 5835 5834 5833 5832 5830 5829 5828 5827 5827 5826 5825 5823 5822 5820 5817
5786 5791 5797 5801 5805 5810 5813 5815 5820 5822 5825 5827 5829 5830 5832 5833 5835 5836 5837 5838 5839 5839 5840 5840 5839 5839 5838 5837 5835 5834 5833 5831 5830 5828 5827 5826 5825 5824 5823 5821 5820 5820 5819 5817 5816 5814 5812 5810 5808
5782 5787 5793 5797 5801 5805 5808 5810 5814 5817 5820 5821 5822 5824 5826 5827 5829 5830 5831 5832 5832 5832 5832 5832 5831 5830 5829 5828 5827 5826 5825 5823 5822 5820 5818 5818 5817 5816 5814 5813 5812 5811 5809 5808 5806 5804 5802 5799 5797
5778 5783 5788 5792 5795 5800 5803 5805 5808 5812 5814 5815 5816 5818 5819 5821 5822 5823 5824 5824 5824 5825 5824 5824 5823 5822 5821 5820 5819 5818 5816 5815 5814 5812 5811 5810 5808 5807 5805 5804 5803 5801 5799 5798 5796 5793 5790 5788 5785
5776 5779 5783 5786 5790 5793 5798 5800 5802 5805 5807 5808 5808 5809 5811 5812 5813 5814 5815 5816 5816 5816 5816 5815 5814 5813 5812 5811 5810 5809 5808 5807 5805 5804 5802 5801 5799 5798 5796 5794 5793 5791 5789 5787 5784 5781 5778 5776 5773
5772 5775 5778 5781 5785 5789 5792 5796 5795 5797 5799 5799 5800 5800 5801 5803 5804 5805 5805 5806 5806 5807 5807 5806 5805 5804 5803 5802 5801 5800 5798 5797 5795 5794 5793 5791 5789 5788 5786 5784 5782 5780 5778 5775 5772 5769 5766 5763 5760
5768 5770 5773 5777 5780 5783 5786 5790 5787 5789 5790 5791 5791 5791 5792 5793 5794 5795 5795 5796 5797 5797 5797 5797 5796 5795 5794 5793 5791 5790 5788 5787 5785 5784 5782 5780 5779 5777 5775 5773 5771 5768 5765 5762 5759 5757 5754 5750 5746